Location: Newark
(8.3667°S, 17.0167°E)
Time: 04:17:46
(UTC+00:00)

N. Korean satellite - Pass Details

Date: 15 November 2019
Orbit: 456 x 506 km, 97.2° (Epoch: 06 December)

Event Time Altitude Azimuth Distance (km) Brightness Sun altitude
Rises 03:23:13 0° 50° (NE) 2,555 10.6 -14.4°
Reaches altitude 10° 03:26:45 10° 87° (E) 1,667 10.4 -13.6°
Maximum altitude 03:27:43 11° 103° (ESE) 1,609 10.6 -13.4°
Drops below altitude 10° 03:28:41 10° 119° (ESE) 1,663 10.7 -13.2°
Sets 03:32:12 0° 156° (SSE) 2,534 10.9 -12.3°
